QPF
0.07 0.07 0.08 0.10 0.15 0.17 0.16 0.12 0.11 0.08 0.21 0.30 0.23 0.17 0.16 0.13 0.13 0.14 0.13 0.10 0.09 0.09 0.08 0.08 0.07 0.08 0.10 0.10 0.12 0.11 0.12 0.11 0.09 0.07 0.05 0.04 0.04 0.04 0.04 0.03 0.02 0.02 0.03
0.06 0.06 0.07 0.10 0.13 0.13 0.13 0.11 0.09 0.08 0.16 0.22 0.19 0.17 0.16 0.14 0.14 0.13 0.12 0.10 0.08 0.08 0.06 0.07 0.05 0.07 0.08 0.12 0.14 0.12 0.10 0.11 0.11 0.09 0.07 0.06 0.06 0.04 0.04 0.04 0.04 0.04 0.04
0.07 0.09 0.10 0.10 0.08 0.08 0.09 0.09 0.08 0.08 0.11 0.13 0.15 0.16 0.15 0.14 0.13 0.11 0.10 0.10 0.09 0.07 0.06 0.07 0.07 0.07 0.07 0.10 0.12 0.12 0.10 0.10 0.11 0.12 0.12 0.11 0.08 0.06 0.04 0.04 0.05 0.05 0.04
0.09 0.09 0.09 0.09 0.07 0.06 0.07 0.08 0.08 0.08 0.09 0.10 0.12 0.13 0.11 0.10 0.09 0.08 0.09 0.08 0.07 0.06 0.06 0.07 0.07 0.07 0.06 0.09 0.13 0.15 0.11 0.10 0.11 0.12 0.12 0.13 0.12 0.09 0.07 0.06 0.06 0.05 0.04
0.07 0.08 0.08 0.10 0.08 0.06 0.06 0.06 0.07 0.08 0.09 0.10 0.10 0.10 0.08 0.08 0.07 0.05 0.06 0.06 0.06 0.04 0.05 0.05 0.04 0.04 0.04 0.06 0.09 0.11 0.10 0.10 0.12 0.12 0.12 0.13 0.14 0.13 0.10 0.07 0.06 0.05 0.05
0.05 0.06 0.08 0.08 0.08 0.07 0.07 0.07 0.08 0.08 0.08 0.09 0.05 0.05 0.05 0.06 0.06 0.05 0.05 0.05 0.04 0.03 0.04 0.05 0.06 0.06 0.05 0.05 0.06 0.06 0.08 0.09 0.13 0.17 0.17 0.14 0.12 0.12 0.11 0.09 0.08 0.08 0.06
0.04 0.06 0.06 0.07 0.07 0.07 0.08 0.09 0.10 0.09 0.08 0.06 0.05 0.06 0.07 0.07 0.07 0.07 0.06 0.05 0.04 0.04 0.05 0.07 0.09 0.09 0.08 0.05 0.04 0.06 0.07 0.07 0.08 0.13 0.16 0.15 0.12 0.11 0.11 0.10 0.10 0.07 0.06
0.05 0.06 0.09 0.08 0.07 0.08 0.08 0.08 0.08 0.08 0.07 0.06 0.06 0.07 0.09 0.10 0.11 0.09 0.07 0.05 0.05 0.05 0.04 0.04 0.05 0.06 0.07 0.07 0.05 0.04 0.05 0.06 0.06 0.07 0.09 0.11 0.10 0.08 0.09 0.11 0.11 0.09 0.07
0.06 0.08 0.12 0.12 0.09 0.08 0.08 0.07 0.08 0.10 0.11 0.10 0.08 0.09 0.10 0.10 0.10 0.11 0.09 0.07 0.06 0.06 0.05 0.04 0.02 0.04 0.04 0.06 0.05 0.03 0.04 0.04 0.04 0.04 0.05 0.07 0.08 0.07 0.09 0.11 0.12 0.11 0.08
0.06 0.04 0.07 0.11 0.14 0.13 0.10 0.09 0.08 0.08 0.10 0.12 0.13 0.11 0.11 0.10 0.10 0.11 0.11 0.09 0.07 0.06 0.05 0.04 0.03 0.04 0.05 0.05 0.04 0.03 0.02 0.04 0.03 0.03 0.04 0.05 0.07 0.08 0.08 0.08 0.10 0.09 0.07
0.04 0.04 0.04 0.04 0.08 0.13 0.16 0.16 0.14 0.12 0.12 0.11 0.11 0.12 0.12 0.12 0.11 0.10 0.09 0.08 0.07 0.05 0.04 0.04 0.04 0.04 0.04 0.05 0.05 0.03 0.03 0.03 0.03 0.02 0.03 0.04 0.05 0.07 0.08 0.07 0.07 0.09 0.09
0.02 0.02 0.02 0.03 0.04 0.06 0.09 0.12 0.13 0.12 0.13 0.12 0.12 0.12 0.12 0.11 0.10 0.09 0.06 0.05 0.06 0.06 0.04 0.03 0.03 0.02 0.02 0.03 0.04 0.04 0.04 0.03 0.02 0.02 0.02 0.02 0.03 0.04 0.06 0.08 0.09 0.11 0.11
0.02 0.02 0.02 0.03 0.03 0.04 0.05 0.06 0.06 0.07 0.07 0.08 0.08 0.09 0.09 0.08 0.08 0.07 0.06 0.04 0.04 0.05 0.05 0.03 0.02 0.02 0.02 0.02 0.03 0.02 0.02 0.02 0.02 0.02 0.02 0.02 0.02 0.04 0.05 0.07 0.09 0.10 0.10
0.02 0.02 0.02 0.03 0.03 0.03 0.03 0.03 0.03 0.03 0.04 0.04 0.04 0.06 0.06 0.06 0.07 0.06 0.05 0.05 0.03 0.03 0.04 0.04 0.03 0.03 0.03 0.03 0.03 0.02 0.02 0.02 0.01 0.01 0.01 0.01 0.01 0.02 0.03 0.05 0.06 0.07 0.08
0.02 0.03 0.03 0.04 0.04 0.04 0.04 0.03 0.03 0.03 0.03 0.03 0.03 0.04 0.04 0.05 0.06 0.06 0.05 0.05 0.04 0.03 0.04 0.04 0.03 0.02 0.03 0.03 0.03 0.02 0.03 0.03 0.02 0.02 0.01 0.01 0.00 0.01 0.02 0.02 0.03 0.04 0.05
0.03 0.04 0.04 0.03 0.04 0.04 0.03 0.03 0.04 0.04 0.04 0.03 0.02 0.02 0.03 0.02 0.04 0.04 0.04 0.04 0.04 0.03 0.03 0.02 0.02 0.02 0.04 0.03 0.03 0.02 0.02 0.02 0.02 0.02 0.01 0.01 0.01 0.01 0.01 0.01 0.01 0.02 0.02
0.04 0.04 0.04 0.03 0.02 0.02 0.03 0.04 0.04 0.04 0.04 0.04 0.03 0.02 0.02 0.02 0.02 0.03 0.03 0.03 0.03 0.03 0.03 0.03 0.02 0.03 0.03 0.04 0.03 0.03 0.02 0.02 0.02 0.02 0.02 0.02 0.01 0.01 0.01 0.01 0.01 0.01 0.01
0.05 0.04 0.05 0.04 0.02 0.03 0.03 0.04 0.04 0.05 0.05 0.04 0.04 0.03 0.02 0.02 0.02 0.02 0.03 0.03 0.05 0.04 0.04 0.04 0.03 0.03 0.04 0.04 0.04 0.04 0.02 0.02 0.02 0.01 0.02 0.02 0.02 0.02 0.02 0.01 0.01 0.01 0.01
0.05 0.04 0.04 0.04 0.03 0.03 0.05 0.05 0.04 0.05 0.04 0.04 0.04 0.04 0.03 0.03 0.03 0.03 0.03 0.04 0.05 0.04 0.04 0.04 0.04 0.04 0.03 0.03 0.04 0.04 0.03 0.03 0.02 0.01 0.01 0.01 0.01 0.01 0.01 0.02 0.01 0.01 0.01
0.02 0.02 0.03 0.03 0.03 0.04 0.03 0.03 0.03 0.04 0.04 0.04 0.04 0.04 0.04 0.04 0.03 0.03 0.03 0.04 0.04 0.04 0.03 0.03 0.03 0.03 0.03 0.02 0.04 0.04 0.03 0.03 0.02 0.01 0.01 0.01 0.01 0.01 0.01 0.01 0.01 0.02 0.02
0.02 0.02 0.02 0.02 0.03 0.03 0.02 0.02 0.03 0.03 0.03 0.04 0.03 0.03 0.02 0.02 0.03 0.03 0.03 0.03 0.03 0.03 0.02 0.02 0.02 0.03 0.03 0.03 0.03 0.02 0.02 0.02 0.02 0.01 0.02 0.01 0.01 0.01 0.00 0.00 0.00 0.01 0.01
0.02 0.02 0.02 0.02 0.02 0.01 0.02 0.03 0.03 0.03 0.03 0.04 0.03 0.03 0.03 0.02 0.02 0.03 0.03 0.03 0.03 0.03 0.03 0.03 0.03 0.03 0.03 0.03 0.03 0.02 0.01 0.01 0.01 0.01 0.02 0.02 0.02 0.01 0.01 0.00 0.00 0.00 0.01
0.02 0.02 0.01 0.02 0.02 0.02 0.02 0.03 0.04 0.04 0.04 0.04 0.04 0.04 0.05 0.04 0.04 0.04 0.03 0.02 0.02 0.01 0.02 0.03 0.04 0.04 0.04 0.04 0.03 0.03 0.03 0.02 0.02 0.01 0.02 0.01 0.01 0.01 0.01 0.01 0.00 0.00 0.01
0.02 0.02 0.01 0.01 0.02 0.02 0.02 0.02 0.04 0.05 0.05 0.05 0.05 0.05 0.05 0.05 0.04 0.05 0.04 0.03 0.02 0.01 0.01 0.02 0.02 0.03 0.03 0.04 0.04 0.03 0.03 0.02 0.02 0.02 0.02 0.01 0.02 0.01 0.01 0.02 0.01 0.01 0.01
0.02 0.02 0.02 0.02 0.02 0.02 0.02 0.02 0.04 0.03 0.03 0.03 0.04 0.05 0.05 0.05 0.05 0.05 0.04 0.04 0.04 0.03 0.02 0.02 0.02 0.02 0.02 0.02 0.03 0.03 0.03 0.02 0.01 0.01 0.02 0.01 0.02 0.02 0.02 0.02 0.02 0.02 0.02
0.02 0.03 0.03 0.04 0.04 0.03 0.03 0.03 0.04 0.03 0.03 0.03 0.03 0.03 0.04 0.04 0.04 0.04 0.03 0.03 0.04 0.04 0.03 0.03 0.03 0.03 0.02 0.02 0.02 0.03 0.04 0.03 0.02 0.01 0.02 0.02 0.01 0.02 0.02 0.01 0.01 0.01 0.01
MSLP
1016.12 1016.23 1016.29 1016.31 1016.33 1016.36 1016.43 1016.53 1016.65 1016.76 1016.82 1016.81 1016.71 1016.55 1016.33 1016.10 1015.90 1015.79 1015.78 1015.88 1016.06 1016.29 1016.53 1016.77 1016.97 1017.13 1017.28 1017.43 1017.62 1017.85 1018.13 1018.44 1018.77 1019.08 1019.36 1019.60 1019.79 1019.95 1020.10 1020.24 1020.41 1020.59 1020.78
1015.78 1015.87 1015.91 1015.93 1015.95 1015.99 1016.07 1016.19 1016.34 1016.48 1016.58 1016.61 1016.56 1016.41 1016.20 1015.95 1015.71 1015.53 1015.43 1015.43 1015.52 1015.69 1015.89 1016.11 1016.32 1016.52 1016.71 1016.91 1017.13 1017.38 1017.67 1017.99 1018.32 1018.64 1018.94 1019.21 1019.45 1019.66 1019.86 1020.06 1020.27 1020.47 1020.67
1015.41 1015.49 1015.53 1015.56 1015.61 1015.67 1015.78 1015.93 1016.10 1016.28 1016.42 1016.49 1016.46 1016.34 1016.12 1015.84 1015.55 1015.29 1015.09 1014.98 1014.97 1015.06 1015.21 1015.41 1015.64 1015.87 1016.11 1016.36 1016.62 1016.89 1017.19 1017.49 1017.81 1018.12 1018.42 1018.71 1018.98 1019.24 1019.49 1019.75 1020.01 1020.25 1020.48
1015.01 1015.09 1015.15 1015.21 1015.29 1015.39 1015.52 1015.70 1015.90 1016.11 1016.28 1016.38 1016.38 1016.28 1016.06 1015.76 1015.41 1015.07 1014.77 1014.55 1014.44 1014.44 1014.53 1014.71 1014.94 1015.21 1015.49 1015.79 1016.08 1016.37 1016.67 1016.96 1017.26 1017.54 1017.83 1018.11 1018.40 1018.69 1018.99 1019.30 1019.61 1019.91 1020.17
1014.56 1014.66 1014.75 1014.85 1014.97 1015.10 1015.27 1015.47 1015.69 1015.92 1016.11 1016.24 1016.27 1016.18 1015.97 1015.66 1015.27 1014.86 1014.48 1014.16 1013.95 1013.86 1013.90 1014.04 1014.26 1014.55 1014.87 1015.21 1015.53 1015.85 1016.15 1016.42 1016.69 1016.94 1017.20 1017.47 1017.75 1018.06 1018.39 1018.75 1019.10 1019.44 1019.75
1014.05 1014.17 1014.30 1014.44 1014.60 1014.77 1014.96 1015.18 1015.41 1015.65 1015.86 1016.00 1016.06 1016.00 1015.81 1015.51 1015.11 1014.66 1014.22 1013.83 1013.53 1013.36 1013.33 1013.43 1013.64 1013.93 1014.27 1014.63 1014.99 1015.32 1015.63 1015.90 1016.14 1016.36 1016.59 1016.83 1017.10 1017.41 1017.75 1018.13 1018.51 1018.89 1019.23
1013.46 1013.60 1013.76 1013.94 1014.14 1014.33 1014.55 1014.77 1015.01 1015.25 1015.46 1015.63 1015.72 1015.70 1015.56 1015.28 1014.91 1014.46 1013.99 1013.55 1013.20 1012.96 1012.86 1012.90 1013.07 1013.35 1013.70 1014.08 1014.46 1014.82 1015.13 1015.40 1015.64 1015.84 1016.05 1016.26 1016.51 1016.80 1017.14 1017.52 1017.91 1018.31 1018.67
1012.78 1012.93 1013.12 1013.33 1013.54 1013.76 1013.98 1014.21 1014.45 1014.68 1014.91 1015.10 1015.23 1015.26 1015.18 1014.97 1014.65 1014.23 1013.78 1013.33 1012.93 1012.64 1012.48 1012.47 1012.59 1012.84 1013.17 1013.55 1013.95 1014.33 1014.67 1014.96 1015.20 1015.42 1015.61 1015.81 1016.04 1016.31 1016.63 1016.99 1017.37 1017.77 1018.14
1012.02 1012.16 1012.36 1012.58 1012.81 1013.03 1013.26 1013.48 1013.71 1013.95 1014.19 1014.41 1014.58 1014.68 1014.67 1014.55 1014.31 1013.97 1013.56 1013.13 1012.72 1012.40 1012.19 1012.12 1012.19 1012.39 1012.69 1013.06 1013.46 1013.86 1014.24 1014.57 1014.85 1015.09 1015.30 1015.51 1015.73 1015.98 1016.27 1016.60 1016.96 1017.33 1017.70
1011.19 1011.31 1011.49 1011.70 1011.93 1012.16 1012.38 1012.60 1012.83 1013.07 1013.32 1013.56 1013.78 1013.95 1014.03 1014.01 1013.87 1013.62 1013.29 1012.91 1012.53 1012.20 1011.96 1011.84 1011.85 1011.99 1012.25 1012.60 1013.00 1013.42 1013.83 1014.21 1014.55 1014.84 1015.09 1015.33 1015.56 1015.80 1016.07 1016.37 1016.70 1017.05 1017.39
1010.30 1010.39 1010.54 1010.73 1010.95 1011.17 1011.38 1011.60 1011.83 1012.07 1012.33 1012.60 1012.87 1013.10 1013.26 1013.34 1013.31 1013.17 1012.94 1012.64 1012.31 1012.00 1011.74 1011.59 1011.55 1011.64 1011.85 1012.17 1012.56 1012.99 1013.44 1013.88 1014.28 1014.64 1014.95 1015.23 1015.50 1015.75 1016.01 1016.29 1016.60 1016.92 1017.24
1009.40 1009.44 1009.55 1009.72 1009.91 1010.11 1010.32 1010.54 1010.77 1011.01 1011.28 1011.57 1011.86 1012.14 1012.38 1012.55 1012.63 1012.60 1012.48 1012.27 1012.02 1011.76 1011.52 1011.35 1011.28 1011.33 1011.50 1011.77 1012.14 1012.58 1013.06 1013.54 1014.01 1014.44 1014.83 1015.17 1015.48 1015.76 1016.03 1016.31 1016.60 1016.90 1017.20
1008.53 1008.52 1008.58 1008.70 1008.87 1009.06 1009.26 1009.47 1009.70 1009.94 1010.21 1010.50 1010.82 1011.13 1011.42 1011.66 1011.83 1011.91 1011.90 1011.81 1011.65 1011.46 1011.27 1011.12 1011.04 1011.06 1011.19 1011.43 1011.77 1012.20 1012.69 1013.21 1013.73 1014.22 1014.68 1015.09 1015.45 1015.77 1016.07 1016.35 1016.64 1016.93 1017.22
1007.73 1007.66 1007.67 1007.75 1007.89 1008.06 1008.25 1008.45 1008.67 1008.91 1009.17 1009.45 1009.76 1010.09 1010.40 1010.70 1010.94 1011.12 1011.22 1011.24 1011.19 1011.10 1010.99 1010.88 1010.82 1010.83 1010.94 1011.15 1011.46 1011.86 1012.34 1012.87 1013.42 1013.96 1014.47 1014.94 1015.35 1015.72 1016.05 1016.36 1016.65 1016.93 1017.22
1007.03 1006.90 1006.86 1006.90 1007.00 1007.14 1007.31 1007.51 1007.71 1007.94 1008.18 1008.45 1008.74 1009.05 1009.38 1009.70 1010.00 1010.26 1010.46 1010.60 1010.67 1010.69 1010.67 1010.64 1010.63 1010.66 1010.75 1010.93 1011.21 1011.57 1012.03 1012.54 1013.09 1013.65 1014.19 1014.70 1015.16 1015.58 1015.94 1016.27 1016.57 1016.86 1017.14
1006.45 1006.27 1006.17 1006.15 1006.21 1006.32 1006.46 1006.64 1006.83 1007.03 1007.25 1007.49 1007.76 1008.05 1008.37 1008.71 1009.04 1009.37 1009.66 1009.91 1010.10 1010.24 1010.34 1010.40 1010.45 1010.51 1010.61 1010.78 1011.02 1011.35 1011.75 1012.23 1012.76 1013.31 1013.86 1014.39 1014.88 1015.33 1015.73 1016.08 1016.40 1016.69 1016.95
1006.01 1005.76 1005.60 1005.51 1005.51 1005.57 1005.67 1005.81 1005.98 1006.16 1006.35 1006.57 1006.81 1007.08 1007.39 1007.73 1008.10 1008.48 1008.84 1009.19 1009.50 1009.76 1009.97 1010.13 1010.26 1010.37 1010.50 1010.66 1010.88 1011.16 1011.52 1011.95 1012.43 1012.96 1013.50 1014.03 1014.54 1015.00 1015.43 1015.81 1016.14 1016.43 1016.68
1005.66 1005.34 1005.09 1004.93 1004.84 1004.84 1004.89 1004.99 1005.12 1005.27 1005.44 1005.63 1005.86 1006.12 1006.43 1006.78 1007.17 1007.59 1008.03 1008.46 1008.87 1009.24 1009.55 1009.82 1010.03 1010.21 1010.37 1010.55 1010.75 1011.01 1011.32 1011.70 1012.14 1012.62 1013.14 1013.66 1014.17 1014.65 1015.10 1015.49 1015.84 1016.13 1016.37
1005.37 1004.96 1004.62 1004.35 1004.18 1004.08 1004.06 1004.10 1004.19 1004.31 1004.47 1004.65 1004.88 1005.14 1005.46 1005.84 1006.26 1006.72 1007.22 1007.72 1008.21 1008.67 1009.08 1009.43 1009.73 1009.97 1010.19 1010.39 1010.60 1010.85 1011.13 1011.48 1011.88 1012.33 1012.82 1013.32 1013.83 1014.33 1014.79 1015.20 1015.56 1015.85 1016.08
1005.10 1004.59 1004.14 1003.76 1003.48 1003.28 1003.17 1003.14 1003.17 1003.27 1003.41 1003.60 1003.84 1004.14 1004.49 1004.90 1005.36 1005.87 1006.42 1006.98 1007.53 1008.06 1008.54 1008.97 1009.34 1009.65 1009.92 1010.17 1010.41 1010.66 1010.94 1011.27 1011.65 1012.08 1012.55 1013.05 1013.56 1014.06 1014.54 1014.97 1015.34 1015.65 1015.88
1004.84 1004.23 1003.66 1003.16 1002.75 1002.44 1002.23 1002.12 1002.10 1002.16 1002.29 1002.50 1002.77 1003.11 1003.52 1003.98 1004.50 1005.06 1005.65 1006.25 1006.85 1007.43 1007.96 1008.45 1008.88 1009.25 1009.58 1009.88 1010.16 1010.45 1010.75 1011.08 1011.46 1011.88 1012.35 1012.84 1013.36 1013.87 1014.37 1014.82 1015.22 1015.54 1015.78
1004.61 1003.90 1003.23 1002.61 1002.08 1001.65 1001.33 1001.13 1001.04 1001.07 1001.20 1001.43 1001.74 1002.14 1002.61 1003.14 1003.72 1004.34 1004.97 1005.61 1006.24 1006.84 1007.41 1007.93 1008.41 1008.83 1009.22 1009.57 1009.90 1010.23 1010.57 1010.93 1011.32 1011.75 1012.22 1012.71 1013.23 1013.76 1014.27 1014.75 1015.17 1015.51 1015.76
1004.47 1003.69 1002.93 1002.21 1001.57 1001.03 1000.60 1000.31 1000.15 1000.14 1000.26 1000.51 1000.88 1001.34 1001.88 1002.48 1003.13 1003.80 1004.47 1005.14 1005.79 1006.40 1006.98 1007.52 1008.01 1008.47 1008.90 1009.30 1009.69 1010.06 1010.44 1010.83 1011.25 1011.69 1012.15 1012.65 1013.17 1013.70 1014.22 1014.71 1015.15 1015.52 1015.79
1004.50 1003.69 1002.87 1002.09 1001.37 1000.73 1000.22 999.84 999.62 999.56 999.67 999.93 1000.33 1000.85 1001.46 1002.13 1002.84 1003.55 1004.26 1004.95 1005.60 1006.21 1006.78 1007.31 1007.82 1008.29 1008.74 1009.18 1009.60 1010.01 1010.42 1010.84 1011.26 1011.71 1012.17 1012.65 1013.15 1013.67 1014.18 1014.67 1015.12 1015.50 1015.80
1004.78 1003.99 1003.17 1002.37 1001.60 1000.91 1000.32 999.87 999.59 999.49 999.57 999.83 1000.26 1000.81 1001.47 1002.19 1002.95 1003.70 1004.43 1005.12 1005.76 1006.35 1006.90 1007.41 1007.90 1008.36 1008.82 1009.26 1009.70 1010.13 1010.56 1010.98 1011.40 1011.82 1012.26 1012.70 1013.17 1013.65 1014.14 1014.61 1015.05 1015.43 1015.73
1005.36 1004.64 1003.88 1003.10 1002.33 1001.62 1000.99 1000.49 1000.16 1000.01 1000.06 1000.31 1000.73 1001.30 1001.98 1002.73 1003.51 1004.28 1005.01 1005.69 1006.31 1006.87 1007.38 1007.85 1008.30 1008.74 1009.17 1009.60 1010.03 1010.45 1010.86 1011.26 1011.65 1012.04 1012.42 1012.82 1013.23 1013.65 1014.08 1014.51 1014.92 1015.28 1015.59
Thickness
5779 5778 5776 5774 5774 5773 5772 5770 5770 5768 5767 5767 5767 5767 5767 5767 5766 5765 5763 5759 5757 5755 5754 5753 5751 5749 5748 5746 5745 5744 5742 5740 5738 5737 5735 5733 5731 5729 5728 5727 5725 5724 5722
5779 5778 5776 5774 5774 5772 5771 5770 5770 5768 5767 5766 5765 5765 5765 5765 5764 5763 5762 5759 5756 5754 5753 5751 5750 5748 5747 5745 5744 5742 5741 5739 5737 5735 5733 5731 5729 5728 5727 5726 5725 5723 5721
5778 5777 5776 5775 5774 5772 5770 5769 5769 5768 5766 5765 5764 5764 5764 5764 5763 5761 5760 5758 5757 5753 5751 5750 5748 5747 5745 5744 5742 5741 5739 5738 5736 5734 5732 5730 5728 5727 5726 5725 5724 5722 5721
5776 5775 5775 5775 5773 5772 5771 5769 5768 5766 5765 5763 5762 5762 5762 5761 5761 5759 5758 5756 5755 5754 5751 5748 5747 5745 5743 5742 5741 5739 5737 5736 5734 5733 5731 5729 5728 5727 5726 5724 5723 5721 5720
5776 5775 5774 5773 5771 5771 5770 5769 5767 5765 5762 5760 5760 5760 5761 5760 5759 5758 5756 5754 5752 5751 5750 5748 5746 5744 5742 5741 5739 5737 5736 5735 5733 5732 5730 5729 5728 5727 5726 5724 5722 5720 5719
5776 5775 5774 5772 5771 5770 5768 5766 5764 5762 5761 5759 5760 5759 5759 5758 5757 5756 5755 5753 5751 5750 5749 5747 5745 5743 5741 5739 5737 5736 5734 5734 5732 5731 5729 5729 5729 5727 5726 5724 5722 5720 5718
5776 5774 5775 5772 5771 5769 5767 5766 5764 5761 5760 5759 5757 5755 5756 5757 5755 5754 5753 5752 5750 5748 5746 5744 5743 5742 5741 5738 5736 5734 5733 5732 5731 5729 5728 5728 5728 5727 5725 5723 5721 5720 5718
5775 5776 5773 5772 5771 5768 5765 5764 5762 5761 5760 5759 5756 5752 5748 5749 5750 5753 5751 5749 5747 5746 5744 5743 5740 5739 5738 5737 5735 5733 5732 5730 5729 5728 5727 5726 5726 5725 5724 5723 5721 5720 5718
5774 5773 5772 5771 5769 5768 5766 5763 5762 5758 5757 5757 5757 5752 5746 5743 5745 5748 5746 5746 5744 5743 5742 5741 5739 5737 5736 5735 5733 5731 5730 5728 5727 5727 5726 5725 5724 5724 5723 5722 5721 5720 5718
5772 5772 5770 5769 5767 5767 5764 5763 5762 5759 5756 5754 5754 5752 5749 5747 5742 5739 5742 5744 5742 5740 5739 5740 5739 5736 5734 5733 5731 5729 5728 5727 5726 5725 5725 5724 5723 5723 5722 5721 5720 5719 5717
5771 5770 5768 5767 5765 5764 5762 5760 5758 5757 5756 5754 5753 5751 5748 5745 5743 5738 5734 5736 5738 5739 5739 5737 5736 5735 5733 5732 5730 5728 5726 5725 5724 5724 5723 5722 5721 5721 5720 5720 5719 5718 5717
5770 5769 5767 5766 5764 5763 5760 5758 5756 5755 5753 5751 5751 5750 5747 5744 5741 5738 5734 5733 5734 5737 5737 5736 5735 5734 5733 5732 5730 5727 5725 5724 5723 5722 5721 5720 5719 5719 5719 5718 5717 5716 5715
5769 5767 5767 5764 5763 5760 5759 5757 5755 5753 5752 5749 5747 5747 5746 5745 5743 5738 5735 5733 5732 5735 5734 5735 5734 5733 5732 5730 5728 5725 5723 5722 5721 5720 5719 5718 5718 5717 5716 5716 5715 5714 5713
5769 5766 5764 5762 5760 5758 5757 5755 5754 5752 5750 5747 5746 5744 5743 5743 5742 5738 5734 5731 5728 5730 5731 5731 5733 5731 5730 5728 5725 5722 5722 5720 5718 5718 5717 5716 5715 5715 5714 5713 5712 5711 5710
5766 5764 5761 5759 5758 5756 5754 5753 5751 5749 5748 5746 5745 5742 5741 5741 5739 5738 5735 5732 5727 5724 5725 5728 5728 5728 5726 5724 5721 5721 5720 5717 5716 5715 5714 5713 5712 5711 5710 5709 5708 5707 5706
5762 5760 5758 5757 5755 5754 5752 5750 5749 5746 5744 5742 5741 5739 5737 5738 5737 5735 5733 5731 5729 5725 5722 5726 5724 5725 5722 5722 5719 5718 5718 5715 5714 5712 5711 5710 5709 5708 5707 5706 5705 5704 5702
5758 5756 5754 5753 5752 5750 5749 5747 5746 5744 5741 5739 5738 5736 5734 5733 5734 5733 5731 5729 5727 5724 5719 5721 5722 5721 5717 5717 5716 5715 5716 5715 5714 5710 5708 5707 5706 5705 5704 5702 5701 5701 5700
5755 5753 5751 5749 5748 5746 5745 5743 5741 5740 5738 5736 5734 5732 5731 5731 5728 5728 5726 5725 5723 5721 5718 5715 5716 5716 5714 5714 5713 5712 5714 5714 5713 5709 5706 5704 5703 5702 5700 5699 5698 5697 5696
5751 5749 5747 5744 5743 5742 5740 5739 5737 5735 5734 5733 5731 5729 5727 5726 5724 5723 5721 5721 5720 5720 5717 5714 5713 5712 5712 5712 5709 5709 5710 5708 5710 5707 5704 5702 5700 5699 5698 5696 5695 5694 5693
5748 5746 5743 5741 5739 5738 5736 5734 5732 5730 5729 5728 5727 5725 5724 5722 5720 5719 5718 5716 5715 5714 5712 5711 5709 5709 5708 5707 5705 5704 5704 5704 5704 5705 5702 5700 5698 5696 5695 5693 5692 5690 5689
5745 5741 5738 5736 5735 5733 5732 5729 5727 5726 5724 5724 5723 5722 5721 5718 5716 5715 5715 5713 5711 5709 5708 5707 5706 5705 5704 5701 5700 5700 5699 5698 5698 5700 5698 5698 5697 5695 5694 5691 5689 5686 5684
5739 5736 5734 5732 5730 5730 5725 5721 5719 5721 5720 5719 5718 5718 5717 5714 5712 5708 5707 5706 5704 5703 5703 5701 5701 5699 5696 5696 5695 5694 5693 5692 5691 5694 5691 5692 5693 5692 5691 5690 5686 5683 5680
5734 5731 5729 5727 5725 5722 5718 5715 5713 5714 5716 5715 5714 5713 5714 5715 5709 5708 5704 5700 5699 5697 5695 5695 5695 5693 5693 5692 5689 5688 5686 5685 5684 5687 5685 5685 5687 5686 5686 5685 5680 5678 5675
5729 5726 5724 5722 5720 5718 5713 5710 5708 5709 5710 5710 5709 5708 5707 5707 5705 5702 5700 5699 5697 5696 5692 5691 5691 5690 5689 5687 5684 5682 5681 5680 5680 5680 5679 5677 5679 5679 5680 5678 5674 5672 5670
5723 5721 5719 5717 5715 5713 5708 5705 5702 5705 5705 5705 5705 5704 5702 5701 5697 5693 5693 5693 5692 5692 5689 5686 5683 5682 5679 5677 5676 5676 5675 5674 5674 5675 5674 5671 5672 5672 5672 5672 5670 5666 5664
5717 5717 5714 5713 5711 5709 5704 5700 5697 5701 5701 5701 5700 5699 5695 5693 5690 5686 5687 5687 5686 5686 5686 5683 5678 5675 5674 5672 5668 5668 5669 5669 5669 5668 5669 5664 5664 5664 5663 5665 5664 5660 5658